CW0728 Weather Reports


Display with metric or nautical units.
time (UTC)temp
F
wind
direction
speed
MPH
gust
MPH
rain 1hr
in
rain 24hr
in
rain mn
in
humidity
%
barometer
mb
20260901223014 66 94 0.0 0.0 0.00 0.00 0.00 85 1017.1
20260901221542 67 188 0.0 0.0 0.00 0.00 0.00 84 1017.2
20260901220049 67 138 0.0 0.0 0.00 0.00 0.00 84 1017.2
20260901214559 67 225 0.0 0.0 0.00 0.00 0.00 82 1017.0
20260901213100 68 94 0.0 0.0 0.00 0.00 0.00 82 1016.9
20260901211512 68 149 0.0 0.0 0.00 0.00 0.00 82 1016.8
20260901210059 68 222 0.0 0.0 0.00 0.00 0.00 81 1016.7
20260901204536 68 166 0.0 0.0 0.00 0.00 0.00 79 1016.7
20260901203038 70 115 0.0 0.0 0.00 0.00 0.00 76 1016.5
20260901201550 70 93 0.0 0.0 0.00 0.00 0.00 76 1016.5
20260901200032 71 93 0.0 0.0 0.00 0.00 0.00 74 1016.5
20260901194602 72 86 0.0 0.0 0.00 0.00 0.00 72 1016.5
20260901193039 73 44 0.0 0.0 0.00 0.00 0.00 71 1016.6
20260901191518 73 92 0.0 0.0 0.00 0.00 0.00 71 1016.7
20260901190056 73 120 0.0 0.0 0.00 0.00 0.00 71 1016.8
20260901184532 73 95 0.0 0.0 0.00 0.00 0.00 68 1016.8
20260901183003 74 85 0.0 0.0 0.00 0.00 0.00 69 1016.6
20260901181540 74 104 0.0 0.0 0.00 0.00 0.00 67 1016.6
20260901180026 74 137 0.0 0.0 0.00 0.00 0.00 65 1016.4
20260901174512 74 82 0.0 1.0 0.00 0.00 0.00 65 1016.3
20260901173058 74 103 0.0 3.0 0.00 0.00 0.00 63 1016.4
20260901171526 73 102 0.0 0.0 0.00 0.00 0.00 68 1016.4
20260901170002 73 76 0.0 0.0 0.00 0.00 0.00 66 1016.3
20260901164538 72 84 0.0 0.0 0.00 0.00 0.00 65 1016.5
20260901163034 71 202 0.0 0.0 0.00 0.00 0.00 69 1016.6
20260901161510 70 102 0.0 0.0 0.00 0.00 0.00 69 1016.6
20260901160044 69 159 0.0 0.0 0.00 0.00 0.00 72 1016.6
20260901154520 68 196 0.0 0.0 0.00 0.00 0.00 70 1016.9
20260901153054 67 335 0.0 0.0 0.00 0.00 0.00 72 1016.8
20260901151537 66 111 0.0 0.0 0.00 0.00 0.00 72 1016.6
20260901150012 64 100 0.0 0.0 0.00 0.00 0.00 75 1016.5
20260901144548 63 97 0.0 0.0 0.00 0.00 0.00 76 1016.4
20260901143017 61 140 0.0 0.0 0.00 0.00 0.00 79 1016.4
20260901141552 60 70 0.0 0.0 0.00 0.00 0.00 78 1016.9
20260901140051 60 61 0.0 0.0 0.00 0.00 0.00 79 1016.9
20260901134512 60 104 0.0 0.0 0.00 0.00 0.00 79 1017.0
20260901133054 60 13 0.0 0.0 0.00 0.00 0.00 80 1017.0
20260901131527 60 63 0.0 0.0 0.00 0.00 0.00 80 1016.8
20260901130011 59 36 0.0 0.0 0.00 0.00 0.00 81 1017.1
20260901124544 59 320 0.0 0.0 0.00 0.00 0.00 83 1017.3
20260901123020 58 309 0.0 0.0 0.00 0.00 0.00 85 1017.0
20260901121550 58 309 0.0 0.0 0.00 0.00 0.00 86 1017.0
20260901120049 57 89 0.0 0.0 0.00 0.00 0.00 89 1016.8
20260901114559 56 331 0.0 0.0 0.00 0.00 0.00 91 1016.8
20260901113039 56 331 0.0 0.0 0.00 0.00 0.00 92 1016.7
20260901111510 55 342 0.0 0.0 0.00 0.00 0.00 92 1016.5
20260901110050 55 351 0.0 0.0 0.00 0.00 0.00 93 1016.3
20260901104522 55 297 0.0 0.0 0.00 0.00 0.00 93 1016.4
20260901103059 54 296 0.0 0.0 0.00 0.00 0.00 94 1016.0
20260901101536 54 69 0.0 0.0 0.00 0.00 0.00 94 1015.7
20260901100021 54 233 0.0 0.0 0.00 0.00 0.00 94 1015.8
20260901094556 53 229 0.0 0.0 0.00 0.00 0.00 94 1015.8
20260901093031 53 229 0.0 0.0 0.00 0.00 0.00 94 1015.7
20260901091504 53 229 0.0 0.0 0.00 0.00 0.00 93 1015.8
20260901090040 53 229 0.0 0.0 0.00 0.00 0.00 93 1016.1
20260901084525 53 226 0.0 0.0 0.00 0.00 0.00 93 1016.0
20260901083106 53 226 0.0 0.0 0.00 0.00 0.00 93 1016.0
20260901081537 53 226 0.0 0.0 0.00 0.00 0.00 93 1016.0
20260901080012 53 226 0.0 0.0 0.00 0.00 0.00 93 1016.0
20260901074549 53 226 0.0 0.0 0.00 0.00 0.00 93 1016.1
20260901073027 53 221 0.0 0.0 0.00 0.00 0.00 92 1016.3
20260901071602 53 221 0.0 0.0 0.00 0.00 0.00 92 1016.4
20260901070048 53 218 0.0 0.0 0.00 0.00 0.00 92 1016.3
20260901064533 54 218 0.0 0.0 0.00 0.00 0.00 92 1016.2
20260901063006 54 218 0.0 0.0 0.00 0.00 0.00 92 1016.2
20260901061542 54 218 0.0 0.0 0.00 0.00 0.00 92 1016.3
20260901060019 55 217 0.0 0.0 0.00 0.00 0.00 92 1016.5
20260901054555 55 217 0.0 0.0 0.00 0.00 0.00 92 1016.2
20260901053106 55 217 0.0 0.0 0.00 0.00 0.00 92 1016.3
20260901051532 55 217 0.0 0.0 0.00 0.00 0.00 91 1016.3
20260901050007 55 217 0.0 0.0 0.00 0.00 0.00 91 1016.3
20260901044554 55 217 0.0 0.0 0.00 0.00 0.00 91 1016.3
20260901043019 56 217 0.0 0.0 0.00 0.00 0.00 90 1016.4
20260901041556 56 217 0.0 0.0 0.00 0.00 0.00 90 1016.4
20260901040032 56 217 0.0 0.0 0.00 0.00 0.00 90 1016.5
20260901034523 56 217 0.0 0.0 0.00 0.00 0.00 90 1016.5
20260901033047 57 217 0.0 0.0 0.00 0.00 0.00 89 1016.5
20260901031533 57 217 0.0 0.0 0.00 0.00 0.00 89 1016.6
20260901030003 58 217 0.0 0.0 0.00 0.04 0.00 88 1016.6
20260901024550 58 217 0.0 0.0 0.00 0.04 0.00 87 1016.5
20260901023021 58 217 0.0 0.0 0.00 0.04 0.00 87 1016.4
20260901021555 59 217 0.0 0.0 0.00 0.04 0.00 87 1016.4
20260901020040 59 217 0.0 0.0 0.00 0.04 0.00 86 1016.5
20260901014509 59 219 0.0 0.0 0.00 0.04 0.00 84 1016.4
20260901013047 60 219 0.0 0.0 0.00 0.04 0.00 83 1016.4
20260901011526 61 219 0.0 0.0 0.00 0.04 0.00 82 1016.5
20260901004539 61 219 0.0 0.0 0.00 0.04 0.00 82 1016.5
20260901003023 62 205 0.0 0.0 0.00 0.04 0.00 81 1016.5
20260901001600 62 205 0.0 0.0 0.00 0.04 0.00 80 1016.4
20260901000034 62 215 0.0 0.0 0.00 0.04 0.00 79 1016.3
20260831234512 63 180 0.0 0.0 0.00 0.04 0.00 78 1016.3
20260831233049 63 190 0.0 0.0 0.00 0.04 0.00 78 1016.4
20260831231523 64 230 0.0 0.0 0.00 0.04 0.00 78 1016.7